Vorticity
nan nan nan nan nan nan nan nan nan nan nan nan nan nan nan nan nan nan nan nan nan nan nan nan nan nan nan nan nan nan nan nan
nan 8 7 6 8 8 7 6 5 7 8 8 8 7 7 8 9 7 5 9 7 7 6 5 8 8 8 7 9 8 7 nan
nan 7 6 7 7 5 7 7 6 5 8 9 8 9 7 8 10 9 9 7 7 8 8 8 5 8 9 7 7 7 8 nan
nan 6 5 7 7 8 8 7 5 5 8 8 8 6 7 8 8 10 11 10 8 4 8 8 7 7 9 9 8 6 6 nan
nan 7 8 7 8 9 9 7 7 7 6 9 9 4 5 6 8 8 6 7 6 6 8 7 9 7 7 7 7 5 7 nan
nan 9 9 7 9 10 9 9 9 8 4 6 8 7 5 8 10 9 6 5 8 9 6 7 6 7 7 8 8 7 5 nan
nan 10 9 9 9 8 9 9 8 8 7 8 9 8 5 7 7 5 8 7 8 9 7 10 7 8 8 8 9 7 6 nan
nan 10 8 9 8 6 8 9 7 8 9 6 6 9 8 7 6 6 7 5 8 10 10 6 6 8 9 9 8 9 8 nan
nan 8 8 9 9 7 8 8 7 7 6 8 7 5 5 7 8 7 8 8 9 8 9 7 7 7 7 6 7 9 8 nan
nan 10 9 10 9 10 8 7 7 9 6 7 8 8 8 6 6 4 8 8 5 8 9 8 6 8 8 5 6 7 7 nan
nan 11 9 9 9 10 10 9 8 8 7 7 9 9 9 9 8 9 6 7 7 6 6 7 8 7 8 6 6 7 6 nan
nan 11 10 9 9 9 10 10 10 6 7 7 8 10 9 7 9 10 8 9 8 9 8 6 8 8 7 8 7 8 7 nan
nan 13 10 9 8 8 9 9 8 8 10 8 7 8 9 8 8 10 10 9 9 8 8 8 9 7 8 8 7 8 8 nan
nan 14 11 9 8 9 9 9 8 10 8 9 10 8 9 9 8 8 9 10 9 8 7 7 9 8 7 8 7 7 8 nan
nan 13 11 10 9 10 9 9 9 10 9 7 7 10 9 9 9 9 9 9 9 8 8 8 8 9 9 8 8 9 9 nan
nan 14 14 12 10 9 10 10 11 10 10 8 8 9 9 9 10 10 9 9 9 10 10 9 8 9 11 13 12 10 12 nan
nan 17 14 13 12 10 8 10 12 10 9 9 10 9 8 9 10 9 10 10 9 9 10 11 8 11 18 15 14 15 18 nan
nan 14 15 16 14 11 12 10 9 10 10 10 10 9 9 9 10 9 9 10 11 12 13 14 14 9 15 21 19 17 17 nan
nan nan nan nan nan nan nan nan nan nan nan nan nan nan nan nan nan nan nan nan nan nan nan nan nan nan nan nan nan nan nan nan
CAPE
323 388 162 180 66 4 13 7 5 29 16 14 8 3 3 2 4 0 0 9 21 63 52 25 7 0 45 23 33 11 9 0
321 414 175 231 85 5 11 9 9 31 10 14 19 23 18 1 0 0 4 37 42 50 36 43 1 2 0 9 19 24 0 0
403 428 168 183 87 6 8 9 8 20 16 12 5 3 10 10 6 6 21 21 37 105 140 62 20 8 8 28 64 7 0 0
491 549 211 56 54 2 2 10 15 27 26 17 16 29 51 56 18 3 25 27 40 68 206 83 107 84 109 173 140 65 41 1
606 663 392 233 228 3 21 8 12 24 37 14 10 3 9 12 2 9 58 97 42 2 57 124 98 111 156 188 163 248 221 88
613 789 545 458 382 6 19 15 9 16 33 11 11 0 0 0 0 17 83 111 102 41 6 146 257 223 299 343 314 196 177 180
405 805 667 601 351 63 20 19 13 14 16 15 4 4 3 28 18 23 42 51 51 55 70 192 205 303 310 380 343 255 322 338
343 882 748 649 390 64 19 16 12 11 13 21 13 4 6 44 12 2 2 8 14 59 119 263 254 320 276 291 372 409 455 391
259 796 806 661 482 75 3 4 12 18 13 21 25 23 7 15 30 0 0 0 7 62 229 241 228 285 315 381 437 559 599 686
133 558 900 744 570 229 35 1 15 17 21 19 19 27 57 36 6 0 0 0 0 11 226 156 279 337 401 461 542 689 694 802
106 417 955 865 525 367 138 35 18 16 16 25 28 61 70 70 57 13 38 0 29 97 158 283 289 412 592 504 546 627 613 763
46 398 782 925 577 494 199 81 39 121 14 16 38 40 158 210 160 52 81 12 66 92 140 246 355 492 531 438 521 517 444 539
36 432 667 834 716 587 308 97 70 348 321 136 109 35 43 105 375 367 268 160 122 164 180 249 273 279 311 337 398 277 374 424
225 437 587 790 765 656 409 173 169 227 269 576 613 438 252 300 340 454 425 355 285 266 227 322 340 304 259 284 245 257 321 302
166 439 533 658 761 783 588 372 377 324 180 244 523 635 635 612 450 236 220 182 270 273 323 351 330 238 185 177 130 201 240 250
11 250 550 566 596 910 882 735 503 338 168 209 407 567 444 402 532 491 200 95 227 308 289 284 295 208 135 225 165 161 171 127
3 7 213 613 549 574 943 918 779 494 337 422 221 263 171 434 469 440 483 362 261 231 185 244 286 92 6 0 0 184 40 4
3 6 4 97 620 593 709 729 841 688 491 293 205 154 134 239 112 89 212 221 201 193 200 166 193 211 0 1 1 1 1 0
0 0 0 1 40 598 615 616 628 755 614 433 395 288 165 112 89 117 211 238 150 89 38 11 0 1 0 1 0 0 0 0